Location: Biberberg
(48.3497°N, 10.2136°E)
Time: 10:15:04
(UTC+00:00)

Daily predictions for brighter satellites

Satellite Brightness Start Highest point End
(mag) Time Altitude Azimuth Time Altitude Azimuth Time Altitude Azimuth
MOS 1 4.4 19:17:01 10° SSE 19:22:41 81° ENE 19:28:24 10° NNW
Cosmos 1802 Rocket 4.0 19:17:53 10° S 19:23:59 68° E 19:30:06 10° NNE
Cosmos 44 Rocket 4.0 19:20:19 10° SW 19:25:22 65° NW 19:30:34 10° NE
Cosmos 1697 Rocket 4.4 19:23:22 10° NW 19:28:14 31° WSW 19:33:03 10° SSW
PAYLOAD B 4.3 19:22:46 10° SSE 19:28:17 88° ENE 19:33:53 10° NNW
NOSS 3-3 (C) 4.0 19:26:02 10° S 19:30:52 42° ESE 19:36:31 10° NE
Meteor 1-31 Rocket 3.5 19:29:55 10° S 19:33:17 47° W 19:36:38 10° NNW
Cosmos 1455 Rocket 3.0 19:31:34 10° S 19:35:58 81° E 19:40:22 10° NNE
USA 306 3.0 19:33:14 10° W 19:36:35 47° NNW 19:38:58 10° NE
Cosmos 1892 Rocket 3.6 19:32:17 10° N 19:36:38 87° W 19:40:56 10° S
CZ-4B R/B 4.4 19:35:30 10° ESE 19:37:46 17° ENE 19:40:06 10° NNE
DELTA 2 R/B (1) 4.4 19:33:08 10° WSW 19:38:04 33° S 19:42:59 10° ESE
Okean O Rocket 2.0 19:34:33 10° SE 19:38:39 46° ENE 19:42:47 10° N
Meteor 1-27 4.2 19:36:12 10° S 19:41:50 81° E 19:47:26 10° NNE
Cosmos 2228 2.9 19:38:08 10° S 19:42:11 60° E 19:46:14 10° NNE
SPOT 5 4.5 19:38:54 10° SSW 19:42:41 30° W 19:46:35 10° NNW
USA 186 2.4 19:40:57 11° SE 19:43:17 31° ENE 19:45:48 10° N
SL-16 R/B 2.8 19:38:21 10° NNW 19:43:48 44° NE 19:49:05 11° SE
Cosmos 1544 Rocket 4.4 19:45:49 10° SSE 19:49:39 32° E 19:53:29 10° NNE
Cosmos 2233 Rocket 4.0 19:44:44 10° S 19:50:52 70° E 19:57:00 10° NNE
Cosmos 2084 Rocket 3.9 19:47:26 10° NW 19:51:33 53° SW 19:55:38 10° SSE
CZ-2C R/B 4.3 19:55:56 10° E 19:57:01 12° ENE 19:58:07 10° NE
SKYMED 3 4.4 19:53:34 10° NNE 19:57:32 86° WNW 20:01:30 10° SSW
COSMOS 2406 3.5 19:52:38 10° S 19:58:08 49° ESE 20:03:38 10° NE
Cosmos 1980 Rocket 3.4 19:54:02 10° NW 19:59:16 39° WSW 20:04:28 10° S
Okean-O 2.6 19:55:05 10° SSE 19:59:25 73° ENE 20:03:49 10° N
Cosmos 1782 2.9 19:56:08 10° SSW 19:59:37 65° WNW 20:03:08 10° N
CZ-4 R/B 3.2 19:56:56 10° SSW 19:59:58 25° W 20:03:03 10° NW
Ariane Rocket 3.9 19:58:02 12° SE 20:02:06 35° ENE 20:06:41 10° N
Cosmos 1933 4.1 20:02:11 14° SSE 20:04:54 31° E 20:08:18 10° NNE
Meteor 1-20 Rocket 4.5 19:59:33 10° N 20:05:04 55° ENE 20:09:56 14° SSE
SPOT 3 Rocket 4.0 20:01:10 13° SE 20:05:30 47° ENE 20:10:26 10° N
Cosmos 1758 Rocket 3.7 20:02:34 10° N 20:06:56 59° ENE 20:10:37 14° SSE
Spot 2 Rocket 3.5 20:02:22 10° SSE 20:07:23 87° WSW 20:12:28 10° NNW
Cosmos 2333 Rocket 2.4 20:06:03 10° NNW 20:11:43 61° ENE 20:16:16 16° SE
ERS-1 Rocket 4.2 20:08:56 10° SSW 20:13:35 38° W 20:18:16 10° NNW
Tsikada Rocket 4.2 20:12:35 10° NNW 20:18:43 71° W 20:24:49 10° S
USA 245 4.3 20:19:40 15° SSE 20:24:40 75° ENE 20:30:14 10° N
Cosmos 2360 Rocket 2.8 20:20:05 10° NNW 20:25:35 48° NE 20:29:39 18° ESE
Cosmos 1461 2.5 20:22:31 10° SSW 20:26:10 65° SE 20:29:50 10° NE
CZ-4B R/B 4.4 20:21:22 10° SSW 20:26:39 40° W 20:31:56 10° NNW
CZ-4B R/B 3.5 20:25:36 19° SE 20:28:57 60° ENE 20:33:44 10° N
CZ-4C R/B 4.1 20:26:23 10° W 20:30:27 30° NNW 20:35:35 10° NNE
Cosmos 1992 Rocket 4.2 20:25:33 10° SSW 20:30:44 73° WNW 20:35:58 10° NNE
Cosmos 1602 Rocket 3.6 20:26:52 10° N 20:31:09 60° ENE 20:33:49 22° SSE
YAOGAN 11 4.4 20:29:48 10° N 20:34:14 73° WNW 20:38:40 10° SSW
ISS -2.7 20:34:17 10° WNW 20:37:31 45° N 20:40:46 10° ENE
Cosmos 1777 Rocket 4.3 20:32:45 10° NNW 20:37:55 57° ENE 20:41:10 22° SE
Cosmos 2219 Rocket 3.1 20:33:38 10° NNW 20:38:57 40° NE 20:42:48 18° ESE
Cosmos 220 Rocket 3.8 20:36:01 15° S 20:39:18 59° ESE 20:43:21 10° NNE
Cosmos 1437 Rocket 2.4 20:36:40 15° S 20:39:29 88° E 20:43:06 10° NNE
USA 290 3.4 20:39:46 24° E 20:39:46 24° E 20:42:14 10° NE
Meteor 1-25 Rocket 4.2 20:34:08 10° N 20:39:50 78° ENE 20:43:46 20° SSE
Cosmos 1503 Rocket 4.4 20:41:21 10° NNW 20:46:26 52° ENE 20:49:23 24° SE
DEBRIS 3.7 20:43:55 10° W 20:47:14 81° N 20:58:04 10° E
Cosmos 2098 Rocket 3.2 20:44:23 21° SSE 20:47:22 57° E 20:51:29 10° NNE
Cosmos 1626 Rocket 4.3 20:43:14 10° NNW 20:47:27 49° W 20:51:00 14° SSW
NOSS 3-3 (A) 4.5 20:44:22 10° WSW 20:49:34 56° NW 20:55:52 10° NE
Cosmos 1076 Rocket 4.4 20:45:51 10° N 20:49:47 35° ENE 20:51:27 25° ESE
Terra 4.1 20:48:08 10° SW 20:51:28 19° W 20:54:48 10° NW
Cosmos 2151 3.5 20:51:28 10° NNW 20:55:28 53° W 20:58:09 19° SSW
Cosmos 1513 Rocket 4.5 20:51:10 12° S 20:57:04 89° W 21:03:14 10° N
IRS-1C Rocket 4.1 20:53:40 22° SSE 20:57:08 83° WSW 21:02:27 10° NNW
Cosmos 2322 Rocket 2.2 20:51:47 10° NNW 20:57:29 83° ENE 21:00:46 26° SSE
Cosmos 1486 Rocket 4.0 20:52:17 10° NNW 20:57:35 90° NNE 21:00:35 27° SSE
Cosmos 1464 Rocket 4.0 20:53:51 20° S 20:58:13 67° E 21:04:21 10° NNE
Cosmos 2082 Rocket 4.0 20:56:17 10° WSW 21:01:27 34° NW 21:06:39 10° NNE
USA 306 4.0 21:01:55 10° WNW 21:03:43 17° NNW 21:04:50 11° NNE
Cosmos 1606 Rocket 3.5 21:03:17 30° SSE 21:05:16 65° E 21:09:34 10° NNE
Meteor 2-10 4.2 21:00:12 10° N 21:05:59 83° ENE 21:09:14 27° SSE
CZ-4B R/B 3.7 21:09:42 23° SSW 21:11:15 35° W 21:14:28 10° NNW
USA 186 4.3 21:11:50 10° WSW 21:12:47 11° W 21:13:46 10° WNW
Cosmos 1766 4.1 21:10:02 10° NNE 21:12:49 26° ENE 21:13:02 26° E
Cosmos 1726 Rocket 3.5 21:12:34 39° SSE 21:13:45 56° E 21:17:44 10° NNE
Cosmos 2237 Rocket 4.5 21:11:23 10° N 21:14:57 17° NE 21:18:30 10° ENE
Okean O Rocket 3.7 21:11:54 10° SW 21:15:04 20° W 21:18:15 10° NW
Cosmos 540 Rocket 3.7 21:13:16 31° SSE 21:15:21 49° ESE 21:20:19 10° NNE
Cosmos 1428 Rocket 4.4 21:09:25 10° N 21:15:41 82° E 21:19:09 28° SSE
Cosmos 1092 Rocket 4.4 21:11:30 10° N 21:17:28 49° ENE 21:20:29 28° SE
Aureole 1 Rocket 4.4 21:13:27 10° NNW 21:18:59 50° ENE 21:22:39 25° SE
Cosmos 1805 3.6 21:18:20 10° NNW 21:21:28 43° W 21:22:21 34° SW
Cosmos 2278 4.3 21:17:53 10° NW 21:23:23 48° WSW 21:26:23 25° S
DELTA 2 R/B (1) 4.4 21:18:55 10° WSW 21:23:40 29° SSW 21:24:09 29° S
COSMOS 2428 3.9 21:21:35 10° NNW 21:26:45 33° NE 21:30:13 18° ESE
CZ-2C R/B 3.1 21:27:14 33° WSW 21:27:27 33° W 21:30:02 10° NNW
SL-16 R/B 3.3 21:22:39 10° NW 21:27:46 35° WSW 21:30:55 20° SSW
Okean 1-7 Rocket 4.0 21:24:13 10° NNW 21:28:37 59° W 21:30:35 31° SSW
Geosat 4.1 21:28:34 10° NE 21:33:29 54° ESE 21:35:08 37° S
NOSS 3-4 (A) 4.1 21:27:54 10° NW 21:34:34 61° SW 21:38:39 29° SSE
Cosmos-2242 3.1 21:34:03 47° SE 21:34:45 53° E 21:38:46 10° NNE
NOSS 3-4 (C) 4.1 21:28:31 10° NW 21:35:14 62° SW 21:39:18 29° SSE
Cosmos 2034 Rocket 4.0 21:32:54 27° S 21:36:37 85° E 21:42:59 10° N
Ariane Rocket 4.2 21:38:06 20° SSW 21:40:58 35° W 21:45:36 10° NNW
USA 234 4.2 21:42:04 10° ENE 21:47:10 26° ESE 21:47:10 26° ESE
TSX-5 4.1 21:46:55 10° NNW 21:49:55 41° NE 21:50:06 40° ENE
Helios 1B rocket 2.0 21:55:11 64° E 21:55:18 65° ENE 21:58:47 10° N
Cosmos 2279 Rocket 4.4 21:53:17 35° SE 21:55:29 49° E 22:01:28 10° NNE
Cosmos 2333 Rocket 3.8 21:51:02 10° NW 21:55:34 25° WSW 21:58:17 17° SW
Cosmos 1763 Rocket 3.7 21:53:12 23° SW 21:56:30 71° WNW 22:01:46 10° NNE
Okean 1 4.3 21:56:18 27° WSW 21:57:29 36° WNW 22:00:50 10° N
Cosmos 1470 3.4 21:55:23 10° N 21:58:12 35° ENE 21:58:12 35° ENE
Cosmos 1536 2.4 21:55:19 10° N 21:59:01 82° E 21:59:12 77° SE
Cosmos 2221 3.5 21:59:07 30° E 21:59:10 30° E 22:02:49 10° NNE
Cosmos 1707 2.8 21:59:51 48° NNW 21:59:51 48° NNW 22:02:04 10° N
Cosmos 1898 Rocket 3.9 21:55:09 10° NNW 22:00:13 52° ENE 22:02:03 35° ESE
Cosmos 1634 Rocket 3.9 21:57:45 37° S 22:00:17 74° E 22:06:29 10° NNE
CSL-04 DEB 4.1 22:01:35 65° E 22:01:43 66° ENE 22:05:20 10° N
Cosmos 2297 Rocket 3.7 22:01:44 20° ESE 22:01:57 20° E 22:05:56 10° NE
Cosmos 1833 4.4 21:57:58 19° SW 22:02:03 72° WNW 22:07:42 10° NNE
CZ-2C R/B 4.1 21:59:33 10° NNE 22:03:50 44° E 22:04:14 43° ESE
Cosmos 1953 Rocket 4.0 21:59:40 10° NNW 22:03:53 51° W 22:04:56 40° SW
Cosmos 990 Rocket 4.4 22:00:21 10° NNW 22:05:22 52° WSW 22:06:54 38° SSW
Cosmos 44 3.4 21:59:57 10° NW 22:05:23 83° SW 22:06:56 47° SSE
Cosmos 2360 Rocket 3.3 22:04:24 10° NW 22:09:23 32° WSW 22:11:23 25° SW
Meteor 2-6 Rocket 4.4 22:08:15 42° SSE 22:10:18 68° E 22:16:13 10° NNE
Cosmos 2322 3.8 22:05:59 10° NNW 22:11:42 71° ENE 22:13:46 40° SE
ISS -3.4 22:11:15 10° WNW 22:14:19 65° NNW 22:14:19 65° NNW
Cosmos 2026 Rocket 4.4 22:09:11 10° NNW 22:15:25 58° W 22:18:17 32° SSW
Cosmos 2058 Rocket 3.2 22:14:25 49° SW 22:15:25 68° W 22:19:45 10° N
GP-B 4.4 22:14:41 10° NNE 22:18:26 27° E 22:18:52 27° E
Helios 1A 3.5 22:17:48 10° N 22:21:36 50° WNW 22:22:30 40° WSW
Cosmos 2219 Rocket 3.0 22:17:39 10° NW 22:22:54 40° WSW 22:24:29 33° SW
Cosmos 2266 Rocket 4.4 22:18:46 10° N 22:24:39 50° ENE 22:26:50 35° SE
KORONAS-FOTON 3.9 22:25:06 56° WNW 22:25:06 56° WNW 22:28:17 10° N
Cosmos 1975 2.8 22:21:54 10° N 22:25:24 61° ENE 22:25:24 61° ENE
Cosmos 841 Rocket 3.5 22:28:15 52° SSE 22:29:08 60° ESE 22:34:18 10° NNE
RESURS DK-1 2.1 22:28:31 10° NNW 22:32:31 86° ENE 22:32:35 85° ESE
ARIANE 5 R/B 2.5 22:32:16 66° SSE 22:32:53 87° ENE 22:37:23 10° NNW
Meteor 1-19 Rocket 4.4 22:32:11 46° SSE 22:33:46 64° E 22:39:37 10° NNE
ALOS 2 2.5 22:33:58 63° SE 22:34:33 75° ENE 22:38:57 10° N
Cosmos 2322 Rocket 4.1 22:37:11 10° WNW 22:40:46 17° W 22:42:34 15° WSW
Cosmos 1271 Rocket 3.1 22:46:13 50° NW 22:46:13 50° NW 22:49:14 10° N
Cosmos 372 Rocket 4.3 22:42:08 10° NNW 22:47:04 50° WSW 22:47:53 45° SW
Cosmos 1842 4.0 22:47:39 36° NW 22:47:39 36° NW 22:50:12 10° N
SL-16 R/B 4.3 22:43:14 10° N 22:47:35 22° NE 22:51:54 10° E
Lacrosse 4 Rocket 3.1 22:51:57 20° E 22:51:57 20° E 22:54:02 10° ENE
Spot 4 3.9 22:51:57 55° SW 22:52:40 63° WSW 22:57:27 10° NNW
Meteor 2-9 Rocket 4.2 22:49:16 10° NNW 22:54:37 66° W 22:55:56 49° SSW
Cosmos 1766 Rocket 4.4 22:50:41 10° N 22:54:43 38° ENE 22:55:19 36° E
PSLV R/B 3.4 22:51:21 10° NNE 22:55:40 81° ESE 22:55:59 74° SSE
Cosmos 2237 Rocket 2.4 22:54:29 10° NNW 23:00:10 65° ENE 23:02:17 38° SE
CZ-2C R/B 3.1 22:58:57 38° ESE 23:00:39 53° ENE 23:05:42 10° N
BREEZE-M DEB (TANK) 4.1 22:46:49 10° WSW 23:01:48 82° NNW 23:05:32 10° ENE
Cosmos 1980 3.7 22:58:39 10° NNW 23:04:20 75° ENE 23:06:13 43° SE
ARGOS Delta rocket 4.1 22:59:57 10° N 23:05:05 73° WNW 23:06:31 48° SW
Cosmos 858 Rocket 4.4 23:00:27 10° NNW 23:05:40 89° WSW 23:06:42 59° SSE
Cosmos 1937 Rocket 3.5 23:03:40 10° NNW 23:08:44 60° WSW 23:09:27 54° SW
COSMOS 2428 3.0 23:05:43 10° NW 23:11:11 50° WSW 23:12:11 45° SW
Cosmos 2227 Rocket 3.2 23:11:04 29° ESE 23:11:50 30° ESE 23:16:40 10° NE
Meteor 2-4 Rocket 4.0 23:11:49 44° SE 23:12:58 52° E 23:18:19 10° NNE
NOSS 0 Rocket 4.0 23:07:47 10° NW 23:13:54 63° WSW 23:15:26 48° SSW
Meteor 1-11 Rocket 3.7 23:08:48 10° NNW 23:14:26 70° W 23:15:45 51° SSW
MetOp-A 3.7 23:18:10 63° S 23:18:56 81° WSW 23:23:39 10° NNW
Meteor 1-10 Rocket 4.4 23:17:23 45° SSW 23:19:16 73° WNW 23:25:13 10° N
Cosmos 2263 Rocket 3.6 23:20:54 22° ESE 23:21:48 23° ESE 23:26:01 10° NE
Cosmos 1238 Rocket 2.8 23:25:54 73° E 23:25:54 73° E 23:30:12 10° NNE
Cosmos 1812 Rocket 4.1 23:25:18 43° WSW 23:25:55 47° WNW 23:30:13 10° N
SeaSat 1 3.0 23:28:37 29° ESE 23:30:51 53° NE 23:35:38 10° NNW
USA 234 3.1 23:24:28 10° NE 23:31:03 80° SE 23:34:30 31° SW
CZ-2C R/B 3.3 23:28:15 10° NNE 23:34:01 83° WNW 23:35:48 47° SSW
Meteor 1-27 Rocket 3.7 23:32:34 49° SSW 23:34:15 82° WNW 23:40:02 10° N
ACS3 Solar Sail 2.5 23:29:43 10° NNE 23:35:19 40° E 23:37:20 31° SE
Cosmos 2221 3.9 23:35:23 25° W 23:36:10 27° WNW 23:39:46 10° NNW
ATLAS 2AS CENTAUR R/B 4.3 23:32:21 10° NW 23:38:24 33° NNE 23:44:26 10° E
Meteor 2-20 Rocket 4.2 23:37:28 50° S 23:39:04 88° W 23:44:49 10° N
BlueWalker 3 3.3 23:41:18 26° E 23:41:18 26° E 23:43:04 10° ENE
Cosmos 2297 Rocket 2.3 23:43:29 43° SW 23:45:22 73° WNW 23:51:02 10° NNE
Okean 3 Rocket 4.1 23:43:52 10° N 23:48:18 53° ENE 23:49:21 43° ESE
Landsat 5 3.2 23:47:26 10° NNE 23:51:32 82° ESE 23:51:40 80° SE
Cosmos 1340 Rocket 4.4 23:48:53 10° N 23:52:11 27° ENE 23:53:19 23° E
Cosmos 1842 Rocket 3.4 23:53:33 69° SSE 23:54:01 80° E 23:58:26 10° NNE
GP-B 4.1 23:51:34 10° NNW 23:55:28 32° W 23:56:01 31° W
